If you wish to contribute or participate in the discussions about articles you are invited to join SKYbrary as a registered user

 Actions

Ain Arnat Airport

From SKYbrary Wiki

DAAS
Airport
ICAO: DAAS – IATA: QSF
Summary
Name Ain Arnat Airport
Region Africa
Territory Algeria DZ.gif
Location , Setif
Serving Setif
Elevation 1,024.128 m
3,360 ft
3,360 ft1,024.128 m
Type medium airport
Coordinates 36° 10' 41.16" N, 5° 19' 28.16" E
Runways
Designator Length Width Surface ROPS


METAR
Observation DAAS 221000Z 26007KT 9999 SCT026 18/07 Q1020
Station Setif
Date/Time 22 May 2019 10:00:00
Wind direction 260°
Wind speed 07 kts
Lowest cloud amount scattered clouds
Temperature 18°C
Dew point 7°C
Humidity 48%
QNH 1020 hPa
Weather condition n/a